Location: ???????
(55.4362°N, 38.1183°E)
Time: 04:26:17
(UTC+00:00)

Cosmos 990 Rocket - Visible Passes

Search period start: 17 October 2021 00:00
Search period end: 27 October 2021 00:00
Orbit: 746 x 769 km, 74.0° (Epoch: 16 October)

Date Brightness Start Highest point End Pass type
(mag) Time Alt. Az. Time Alt. Az. Time Alt. Az.
17 Oct 6.4 16:25:53 10° W 16:29:40 20° NW 16:33:28 10° NNE visible
17 Oct 6.8 18:12:56 10° NNW 18:13:46 10° N 18:14:37 10° N visible
17 Oct 6.8 19:55:52 10° N 19:57:05 12° N 19:57:05 12° N visible
18 Oct 6.0 15:44:43 10° W 15:49:04 26° NW 15:53:27 10° NNE visible
18 Oct 6.7 17:31:06 10° NW 17:32:54 12° NNW 17:34:42 10° N visible
18 Oct 6.8 19:15:56 10° N 19:17:22 11° NNE 19:17:24 11° NNE visible
18 Oct 7.0 20:57:08 10° NNW 20:57:25 11° NNW 20:57:25 11° NNW visible
19 Oct 5.5 15:03:47 10° WSW 15:08:35 36° NW 15:13:26 10° NNE visible
19 Oct 6.6 16:49:24 10° NW 16:52:04 14° NNW 16:54:45 10° N visible
19 Oct 6.7 18:36:02 10° N 18:36:29 10° N 18:36:55 10° N visible
19 Oct 6.9 20:17:08 10° N 20:17:45 12° N 20:17:45 12° N visible
20 Oct 6.4 16:07:54 10° WNW 16:11:20 17° NNW 16:14:47 10° N visible
20 Oct 6.7 17:55:16 10° N 17:55:34 10° N 17:55:51 10° N visible
20 Oct 6.8 19:37:09 10° N 19:38:07 12° N 19:38:07 12° N visible
21 Oct 6.1 15:26:36 10° W 15:30:41 22° NW 15:34:47 10° NNE visible
21 Oct 6.7 17:13:21 10° NNW 17:14:40 11° NNW 17:16:00 10° N visible
21 Oct 6.7 18:57:12 10° N 18:58:29 12° N 18:58:29 12° N visible
21 Oct 7.0 20:38:27 10° NNW 20:38:31 10° NNW 20:38:31 10° NNW visible
22 Oct 5.7 14:45:32 10° WSW 14:50:08 30° NW 14:54:46 10° NNE visible
22 Oct 6.5 16:31:35 10° NW 16:33:48 13° NNW 16:36:03 10° N visible
22 Oct 6.6 18:17:15 10° N 18:18:15 10° N 18:18:52 10° NNE visible
22 Oct 6.9 19:58:27 10° NNW 19:58:54 12° N 19:58:54 12° N visible
23 Oct 6.4 15:49:58 10° WNW 15:53:02 15° NNW 15:56:05 10° N visible
23 Oct 6.8 19:18:28 10° N 19:19:18 12° N 19:19:18 12° N visible
24 Oct 6.2 15:08:34 10° W 15:12:19 19° NW 15:16:06 10° NNE visible
24 Oct 6.6 16:55:36 10° NNW 16:56:26 10° N 16:57:17 10° N visible
24 Oct 6.6 18:38:30 10° N 18:39:42 12° N 18:39:42 12° N visible
25 Oct 6.5 16:13:47 10° NW 16:15:34 12° NNW 16:17:20 10° N visible
25 Oct 6.6 17:58:32 10° N 18:00:01 11° NNE 18:00:07 11° NNE visible
25 Oct 6.9 19:39:45 10° NNW 19:40:09 12° N 19:40:09 12° N visible
26 Oct 6.4 15:32:05 10° NW 15:34:44 14° NNW 15:37:23 10° N visible
26 Oct 6.5 17:18:36 10° N 17:19:08 10° N 17:19:40 10° N visible
26 Oct 6.7 18:59:45 10° N 19:00:35 13° N 19:00:35 13° N visible
